| time (UTC) | temp F | wind direction | speed knots | gust knots | rain 1hr in | rain 24hr in | rain mn in | humidity % | barometer mb |
| 20260902034058 | 51 | 327 | 2.6 | 6.1 | 0.00 | 0.00 | 0.00 | 68 | 1014.6 |
| 20260902033558 | 51 | 279 | 2.6 | 7.8 | 0.00 | 0.00 | 0.00 | 68 | 1014.6 |
| 20260902033107 | 51 | 282 | 2.6 | 7.8 | 0.00 | 0.00 | 0.00 | 68 | 1014.6 |
| 20260902032558 | 51 | 297 | 2.6 | 7.8 | 0.00 | 0.00 | 0.00 | 67 | 1014.6 |
| 20260902032058 | 52 | 317 | 2.6 | 5.2 | 0.00 | 0.00 | 0.00 | 65 | 1014.5 |
| 20260902031608 | 52 | 317 | 2.6 | 6.1 | 0.00 | 0.00 | 0.00 | 63 | 1014.5 |
| 20260902031101 | 52 | 314 | 2.6 | 6.1 | 0.00 | 0.00 | 0.00 | 63 | 1014.5 |
| 20260902030558 | 53 | 310 | 2.6 | 7.8 | 0.00 | 0.00 | 0.00 | 63 | 1014.5 |
| 20260902030104 | 53 | 333 | 3.5 | 7.8 | 0.00 | 0.00 | 0.00 | 62 | 1014.5 |
| 20260902025558 | 53 | 268 | 3.5 | 7.0 | 0.00 | 0.00 | 0.00 | 61 | 1014.6 |
| 20260902025101 | 54 | 292 | 2.6 | 7.0 | 0.00 | 0.00 | 0.00 | 60 | 1014.5 |
| 20260902024611 | 54 | 300 | 2.6 | 7.0 | 0.00 | 0.00 | 0.00 | 58 | 1014.5 |
| 20260902024100 | 54 | 309 | 2.6 | 7.0 | 0.00 | 0.00 | 0.00 | 58 | 1014.5 |
| 20260902023558 | 54 | 309 | 3.5 | 7.0 | 0.00 | 0.00 | 0.00 | 58 | 1014.4 |
| 20260902023106 | 55 | 300 | 1.7 | 6.1 | 0.00 | 0.00 | 0.00 | 57 | 1014.4 |
| 20260902022558 | 55 | 304 | 2.6 | 6.1 | 0.00 | 0.00 | 0.00 | 56 | 1014.4 |
| 20260902022101 | 55 | 300 | 2.6 | 8.7 | 0.00 | 0.00 | 0.00 | 56 | 1014.3 |
| 20260902021604 | 55 | 302 | 3.5 | 9.6 | 0.00 | 0.00 | 0.00 | 56 | 1014.3 |
| 20260902021058 | 55 | 282 | 4.3 | 9.6 | 0.00 | 0.00 | 0.00 | 57 | 1014.3 |
| 20260902020558 | 55 | 275 | 5.2 | 9.6 | 0.00 | 0.00 | 0.00 | 57 | 1014.3 |
| 20260902020104 | 55 | 307 | 5.2 | 8.7 | 0.00 | 0.00 | 0.00 | 57 | 1014.3 |
| 20260902015557 | 55 | 275 | 4.3 | 7.8 | 0.00 | 0.00 | 0.00 | 57 | 1014.4 |
| 20260902015057 | 55 | 293 | 3.5 | 7.8 | 0.00 | 0.00 | 0.00 | 57 | 1014.3 |
| 20260902014604 | 55 | 331 | 4.3 | 8.7 | 0.00 | 0.00 | 0.00 | 57 | 1014.4 |
| 20260902014101 | 56 | 275 | 5.2 | 8.7 | 0.00 | 0.00 | 0.00 | 57 | 1014.5 |
| 20260902013558 | 56 | 265 | 5.2 | 8.7 | 0.00 | 0.00 | 0.00 | 57 | 1014.5 |
| 20260902013110 | 56 | 281 | 5.2 | 8.7 | 0.00 | 0.00 | 0.00 | 56 | 1014.4 |
| 20260902012558 | 56 | 302 | 4.3 | 9.6 | 0.00 | 0.00 | 0.00 | 56 | 1014.5 |
| 20260902012057 | 56 | 297 | 4.3 | 11.3 | 0.00 | 0.00 | 0.00 | 56 | 1014.4 |
| 20260902011602 | 56 | 268 | 6.1 | 11.3 | 0.00 | 0.00 | 0.00 | 56 | 1014.5 |
| 20260902011058 | 56 | 313 | 7.0 | 12.2 | 0.00 | 0.00 | 0.00 | 56 | 1014.4 |
| 20260902010558 | 56 | 290 | 4.3 | 12.2 | 0.00 | 0.00 | 0.00 | 56 | 1014.4 |
| 20260902010105 | 56 | 298 | 4.3 | 16.5 | 0.00 | 0.00 | 0.00 | 56 | 1014.5 |
| 20260902005558 | 56 | 289 | 9.6 | 16.5 | 0.00 | 0.00 | 0.00 | 56 | 1014.3 |
| 20260902005057 | 56 | 272 | 9.6 | 17.4 | 0.00 | 0.00 | 0.00 | 55 | 1014.3 |
| 20260902004602 | 57 | 265 | 9.6 | 17.4 | 0.00 | 0.00 | 0.00 | 54 | 1014.3 |
| 20260902004058 | 58 | 281 | 9.6 | 15.6 | 0.00 | 0.00 | 0.00 | 52 | 1014.2 |
| 20260902003600 | 59 | 267 | 7.8 | 14.8 | 0.00 | 0.00 | 0.00 | 49 | 1014.2 |
| 20260902003110 | 60 | 297 | 5.2 | 13.9 | 0.00 | 0.00 | 0.00 | 45 | 1014.1 |
| 20260902002557 | 60 | 250 | 3.5 | 13.0 | 0.00 | 0.00 | 0.00 | 42 | 1013.9 |
| 20260902002058 | 60 | 296 | 5.2 | 13.0 | 0.00 | 0.00 | 0.00 | 42 | 1014.1 |
| 20260902001606 | 60 | 302 | 5.2 | 13.0 | 0.00 | 0.00 | 0.00 | 41 | 1014.1 |
| 20260902001058 | 61 | 292 | 3.5 | 10.4 | 0.00 | 0.00 | 0.00 | 41 | 1014.1 |
| 20260902000558 | 61 | 291 | 3.5 | 10.4 | 0.00 | 0.00 | 0.00 | 40 | 1014.1 |
| 20260902000059 | 61 | 298 | 3.5 | 10.4 | 0.00 | 0.00 | 0.00 | 39 | 1014.2 |
| 20260901235559 | 62 | 241 | 3.5 | 11.3 | 0.00 | 0.00 | 0.00 | 38 | 1014.3 |
| 20260901235100 | 63 | 205 | 2.6 | 11.3 | 0.00 | 0.00 | 0.00 | 34 | 1014.4 |
| 20260901234613 | 64 | 116 | 4.3 | 13.9 | 0.00 | 0.00 | 0.00 | 26 | 1014.3 |
| 20260901234058 | 65 | 186 | 2.6 | 13.9 | 0.00 | 0.00 | 0.00 | 26 | 1014.2 |
| 20260901233602 | 65 | 183 | 5.2 | 19.1 | 0.00 | 0.00 | 0.00 | 25 | 1014.3 |
| 20260901233104 | 65 | 159 | 6.1 | 21.7 | 0.00 | 0.00 | 0.00 | 26 | 1014.2 |
| 20260901232558 | 63 | 114 | 11.3 | 21.7 | 0.00 | 0.00 | 0.00 | 26 | 1013.9 |
| 20260901232058 | 64 | 225 | 9.6 | 20.0 | 0.00 | 0.00 | 0.00 | 27 | 1014.2 |
| 20260901231605 | 65 | 167 | 5.2 | 17.4 | 0.00 | 0.00 | 0.00 | 26 | 1014.3 |
| 20260901231058 | 65 | 103 | 1.7 | 10.4 | 0.00 | 0.00 | 0.00 | 27 | 1014.1 |
| 20260901230557 | 64 | 184 | 3.5 | 13.9 | 0.00 | 0.00 | 0.00 | 28 | 1014.2 |
| 20260901230105 | 64 | 135 | 5.2 | 19.1 | 0.00 | 0.00 | 0.00 | 27 | 1014.3 |
| 20260901225558 | 65 | 150 | 8.7 | 19.1 | 0.00 | 0.00 | 0.00 | 27 | 1014.2 |
| 20260901225057 | 65 | 139 | 10.4 | 18.2 | 0.00 | 0.00 | 0.00 | 27 | 1014.2 |
| 20260901224604 | 65 | 161 | 4.3 | 17.4 | 0.00 | 0.00 | 0.00 | 27 | 1014.3 |
| 20260901224057 | 65 | 146 | 7.8 | 17.4 | 0.00 | 0.00 | 0.00 | 26 | 1014.4 |
| 20260901223601 | 65 | 98 | 4.3 | 22.6 | 0.00 | 0.00 | 0.00 | 27 | 1014.3 |
| 20260901223105 | 64 | 128 | 5.2 | 22.6 | 0.00 | 0.00 | 0.00 | 27 | 1014.3 |
| 20260901222557 | 64 | 232 | 12.2 | 20.9 | 0.00 | 0.00 | 0.00 | 27 | 1014.3 |
| 20260901222057 | 64 | 139 | 5.2 | 17.4 | 0.00 | 0.00 | 0.00 | 27 | 1014.2 |
| 20260901221608 | 64 | 103 | 5.2 | 24.3 | 0.00 | 0.00 | 0.00 | 26 | 1014.3 |
| 20260901221057 | 65 | 281 | 6.1 | 24.3 | 0.00 | 0.00 | 0.00 | 26 | 1014.4 |
| 20260901220557 | 66 | 152 | 7.8 | 20.0 | 0.00 | 0.00 | 0.00 | 25 | 1014.1 |
| 20260901220118 | 65 | 206 | 8.7 | 25.2 | 0.00 | 0.00 | 0.00 | 24 | 1014.1 |
| 20260901215558 | 65 | 148 | 6.1 | 25.2 | 0.00 | 0.00 | 0.00 | 24 | 1014.1 |
| 20260901215058 | 66 | 152 | 10.4 | 25.2 | 0.00 | 0.00 | 0.00 | 23 | 1014.1 |
| 20260901214604 | 67 | 150 | 11.3 | 24.3 | 0.00 | 0.00 | 0.00 | 24 | 1014.0 |
| 20260901214059 | 66 | 188 | 9.6 | 23.5 | 0.00 | 0.00 | 0.00 | 24 | 1014.1 |
| 20260901213559 | 66 | 213 | 8.7 | 23.5 | 0.00 | 0.00 | 0.00 | 23 | 1014.0 |
| 20260901213112 | 66 | 93 | 5.2 | 19.1 | 0.00 | 0.00 | 0.00 | 26 | 1014.2 |
| 20260901212601 | 66 | 142 | 4.3 | 18.2 | 0.00 | 0.00 | 0.00 | 27 | 1014.1 |
| 20260901212101 | 66 | 189 | 5.2 | 15.6 | 0.00 | 0.00 | 0.00 | 28 | 1014.2 |
| 20260901211604 | 65 | 291 | 6.1 | 15.6 | 0.00 | 0.00 | 0.00 | 31 | 1014.3 |
| 20260901211101 | 64 | 117 | 7.0 | 13.0 | 0.00 | 0.00 | 0.00 | 33 | 1014.3 |
| 20260901210601 | 64 | 300 | 3.5 | 10.4 | 0.00 | 0.00 | 0.00 | 34 | 1014.4 |
| 20260901210104 | 63 | 295 | 2.6 | 13.0 | 0.00 | 0.00 | 0.00 | 34 | 1014.4 |
| 20260901205602 | 62 | 252 | 5.2 | 13.0 | 0.00 | 0.00 | 0.00 | 37 | 1014.5 |
| 20260901205106 | 63 | 297 | 4.3 | 11.3 | 0.00 | 0.00 | 0.00 | 35 | 1014.6 |
| 20260901204601 | 65 | 265 | 6.1 | 11.3 | 0.00 | 0.00 | 0.00 | 34 | 1014.8 |
| 20260901204102 | 64 | 249 | 5.2 | 11.3 | 0.00 | 0.00 | 0.00 | 35 | 1014.5 |
| 20260901203559 | 65 | 65 | 1.7 | 7.8 | 0.00 | 0.00 | 0.00 | 33 | 1014.6 |
| 20260901203106 | 65 | 28 | 3.5 | 20.0 | 0.00 | 0.00 | 0.00 | 34 | 1014.7 |
| 20260901202557 | 66 | 41 | 3.5 | 20.0 | 0.00 | 0.00 | 0.00 | 33 | 1014.7 |
| 20260901202057 | 66 | 96 | 6.1 | 13.9 | 0.00 | 0.00 | 0.00 | 29 | 1014.7 |
| 20260901201604 | 65 | 92 | 7.8 | 13.9 | 0.00 | 0.00 | 0.00 | 29 | 1014.7 |
| 20260901201104 | 65 | 338 | 3.5 | 8.7 | 0.00 | 0.00 | 0.00 | 35 | 1014.9 |
| 20260901200601 | 64 | 9 | 3.5 | 11.3 | 0.00 | 0.00 | 0.00 | 35 | 1014.9 |
| 20260901200104 | 64 | 317 | 4.3 | 11.3 | 0.00 | 0.00 | 0.00 | 35 | 1015.0 |
| 20260901195600 | 65 | 99 | 5.2 | 11.3 | 0.00 | 0.00 | 0.00 | 31 | 1015.0 |
| 20260901195101 | 65 | 58 | 4.3 | 10.4 | 0.00 | 0.00 | 0.00 | 34 | 1015.1 |
| 20260901194607 | 65 | 205 | 3.5 | 10.4 | 0.00 | 0.00 | 0.00 | 34 | 1015.2 |
| 20260901194102 | 65 | 163 | 2.6 | 17.4 | 0.00 | 0.00 | 0.00 | 33 | 1015.3 |
| 20260901193601 | 64 | 191 | 2.6 | 17.4 | 0.00 | 0.00 | 0.00 | 28 | 1015.4 |
| 20260901193116 | 64 | 140 | 5.2 | 16.5 | 0.00 | 0.00 | 0.00 | 25 | 1015.3 |
| 20260901192557 | 65 | 128 | 7.0 | 15.6 | 0.00 | 0.00 | 0.00 | 26 | 1015.4 |
| 20260901192101 | 64 | 195 | 8.7 | 18.2 | 0.00 | 0.00 | 0.00 | 32 | 1015.3 |
| 20260901191606 | 63 | 173 | 7.0 | 21.7 | 0.00 | 0.00 | 0.00 | 37 | 1015.2 |
| 20260901191101 | 62 | 153 | 7.8 | 21.7 | 0.00 | 0.00 | 0.00 | 35 | 1015.4 |
| 20260901190602 | 62 | 136 | 9.6 | 21.7 | 0.00 | 0.00 | 0.00 | 38 | 1015.3 |
| 20260901190112 | 62 | 155 | 12.2 | 21.7 | 0.00 | 0.00 | 0.00 | 41 | 1015.3 |
| 20260901185602 | 62 | 175 | 9.6 | 20.0 | 0.00 | 0.00 | 0.00 | 41 | 1015.5 |
| 20260901185101 | 62 | 152 | 5.2 | 20.0 | 0.00 | 0.00 | 0.00 | 43 | 1015.5 |
| 20260901184608 | 62 | 159 | 10.4 | 20.0 | 0.00 | 0.00 | 0.00 | 41 | 1015.4 |
| 20260901184058 | 62 | 148 | 8.7 | 29.5 | 0.00 | 0.00 | 0.00 | 42 | 1015.5 |
| 20260901183558 | 63 | 136 | 5.2 | 29.5 | 0.00 | 0.00 | 0.00 | 41 | 1015.4 |